TimeCST,TemperatureF,Dew PointF,Humidity,Sea Level PressureIn,VisibilityMPH,Wind Direction,Wind SpeedMPH,Gust SpeedMPH,PrecipitationIn,Events,Conditions,WindDirDegrees,DateUTC
12:15 AM,30.2,30.2,100,30.36,7.0,Calm,Calm,-,N/A,,Clear,0,2012-11-15 06:15:00
12:35 AM,32.0,30.2,93,30.36,7.0,Calm,Calm,-,N/A,,Clear,0,2012-11-15 06:35:00
12:55 AM,30.2,30.2,100,30.36,7.0,Calm,Calm,-,N/A,,Clear,0,2012-11-15 06:55:00
1:15 AM,30.2,30.2,100,30.36,5.0,Calm,Calm,-,N/A,,Clear,0,2012-11-15 07:15:00
1:35 AM,30.2,28.4,93,30.36,5.0,Calm,Calm,-,N/A,,Clear,0,2012-11-15 07:35:00
1:55 AM,28.4,28.4,100,30.36,7.0,Calm,Calm,-,N/A,,Clear,0,2012-11-15 07:55:00
2:15 AM,30.2,28.4,93,30.36,5.0,Calm,Calm,-,N/A,,Clear,0,2012-11-15 08:15:00
2:35 AM,28.4,28.4,100,30.36,5.0,Calm,Calm,-,N/A,,Clear,0,2012-11-15 08:35:00
2:55 AM,30.2,30.2,100,30.36,5.0,Calm,Calm,-,N/A,,Clear,0,2012-11-15 08:55:00
3:15 AM,30.2,30.2,100,30.36,5.0,Calm,Calm,-,N/A,,Clear,0,2012-11-15 09:15:00
3:35 AM,28.4,28.4,100,30.35,4.0,Calm,Calm,-,N/A,,Clear,0,2012-11-15 09:35:00
3:55 AM,30.2,28.4,93,30.35,3.0,Calm,Calm,-,N/A,,Clear,0,2012-11-15 09:55:00
4:15 AM,30.2,28.4,93,30.36,4.0,Calm,Calm,-,N/A,,Clear,0,2012-11-15 10:15:00
4:35 AM,30.2,28.4,93,30.36,4.0,Calm,Calm,-,N/A,,Clear,0,2012-11-15 10:35:00
4:55 AM,28.4,28.4,100,30.37,5.0,Calm,Calm,-,N/A,,Clear,0,2012-11-15 10:55:00
5:15 AM,30.2,30.2,100,30.37,4.0,Calm,Calm,-,N/A,,Clear,0,2012-11-15 11:15:00
5:35 AM,28.4,28.4,100,30.36,5.0,Calm,Calm,-,N/A,,Clear,0,2012-11-15 11:35:00
6:55 AM,28.4,26.6,93,30.37,5.0,Calm,Calm,-,N/A,,Scattered Clouds,0,2012-11-15 12:55:00
7:55 AM,30.2,30.2,100,30.40,5.0,Calm,Calm,-,N/A,,Scattered Clouds,0,2012-11-15 13:55:00
9:55 AM,39.2,33.8,81,30.42,10.0,Calm,Calm,-,N/A,,Mostly Cloudy,0,2012-11-15 15:55:00
10:55 AM,44.6,32.0,61,30.40,10.0,NNW,5.8,-,N/A,,Mostly Cloudy,330,2012-11-15 16:55:00
11:55 AM,46.4,30.2,53,30.38,20.0,ENE,5.8,-,N/A,,Mostly Cloudy,60,2012-11-15 17:55:00
12:55 PM,48.2,30.2,50,30.36,20.0,NNE,5.8,-,N/A,,Mostly Cloudy,20,2012-11-15 18:55:00
1:55 PM,50.0,30.2,47,30.34,20.0,NNE,4.6,-,N/A,,Mostly Cloudy,20,2012-11-15 19:55:00
2:55 PM,51.8,30.2,44,30.34,20.0,NE,5.8,-,N/A,,Scattered Clouds,50,2012-11-15 20:55:00
3:55 PM,50.0,30.2,47,30.34,20.0,North,5.8,-,N/A,,Scattered Clouds,10,2012-11-15 21:55:00
4:55 PM,46.4,30.2,53,30.35,20.0,North,4.6,-,N/A,,Scattered Clouds,360,2012-11-15 22:55:00
5:55 PM,39.2,32.0,75,30.36,20.0,North,5.8,-,N/A,,Scattered Clouds,360,2012-11-15 23:55:00
6:55 PM,37.4,32.0,81,30.37,10.0,Calm,Calm,-,N/A,,Clear,0,2012-11-16 00:55:00
7:15 PM,37.4,32.0,81,30.37,10.0,Calm,Calm,-,N/A,,Clear,0,2012-11-16 01:15:00
7:35 PM,35.6,33.8,93,30.37,10.0,Calm,Calm,-,N/A,,Clear,0,2012-11-16 01:35:00
7:55 PM,37.4,33.8,87,30.37,10.0,Calm,Calm,-,N/A,,Clear,0,2012-11-16 01:55:00
8:15 PM,35.6,33.8,93,30.37,10.0,Calm,Calm,-,N/A,,Clear,0,2012-11-16 02:15:00
8:35 PM,35.6,33.8,93,30.37,10.0,Calm,Calm,-,N/A,,Clear,0,2012-11-16 02:35:00
8:55 PM,33.8,32.0,93,30.38,10.0,Calm,Calm,-,N/A,,Clear,0,2012-11-16 02:55:00
9:15 PM,33.8,32.0,93,30.38,10.0,Calm,Calm,-,N/A,,Clear,0,2012-11-16 03:15:00
9:35 PM,33.8,32.0,93,30.38,10.0,Calm,Calm,-,N/A,,Clear,0,2012-11-16 03:35:00
9:55 PM,35.6,32.0,87,30.38,10.0,Calm,Calm,-,N/A,,Scattered Clouds,0,2012-11-16 03:55:00
10:15 PM,35.6,33.8,93,30.38,10.0,Calm,Calm,-,N/A,,Unknown,0,2012-11-16 04:15:00
10:35 PM,35.6,33.8,93,30.38,10.0,Calm,Calm,-,N/A,,Unknown,0,2012-11-16 04:35:00
10:55 PM,37.4,33.8,87,30.39,10.0,Calm,Calm,-,N/A,,Overcast,0,2012-11-16 04:55:00
11:15 PM,37.4,33.8,87,30.39,10.0,Calm,Calm,-,N/A,,Mostly Cloudy,0,2012-11-16 05:15:00
11:35 PM,37.4,33.8,87,30.40,10.0,Calm,Calm,-,N/A,,Overcast,0,2012-11-16 05:35:00
11:55 PM,35.6,33.8,93,30.39,10.0,Calm,Calm,-,N/A,,Mostly Cloudy,0,2012-11-16 05:55:00